DW1920 Weather Reports


Display with metric or nautical units.
time (UTC)temp
F
wind
direction
speed
MPH
gust
MPH
rain 1hr
in
rain 24hr
in
rain mn
in
humidity
%
barometer
mb
20260507004003 48 184 27.0 32.0 0.10 1.16 1.16 95 1004.1
20260507003045 49 182 25.0 35.0 0.06 1.12 1.12 95 1004.4
20260507002023 48 180 28.0 33.0 0.03 1.09 1.09 95 1004.2
20260507001003 48 181 25.0 31.0 0.02 1.08 1.08 95 1004.3
20260507000024 48 181 26.0 31.0 0.00 1.06 1.06 95 1004.4
20260506235003 48 179 26.0 32.0 0.36 1.05 1.05 95 1004.3
20260506234003 48 180 26.0 31.0 0.32 1.01 1.01 94 1004.5
20260506232003 49 186 25.0 33.0 0.18 0.87 0.87 95 1004.6
20260506231002 49 186 26.0 32.0 0.06 0.75 0.75 95 1004.7
20260506230003 49 183 26.0 32.0 0.51 0.69 0.69 94 1004.7
20260506225002 49 184 26.0 32.0 0.45 0.63 0.63 94 1004.9
20260506224003 49 186 26.0 36.0 0.38 0.56 0.56 94 1005.0
20260506223024 49 188 26.0 31.0 0.25 0.43 0.43 94 1005.0
20260506222003 49 189 25.0 31.0 0.15 0.33 0.33 93 1005.4
20260506221003 49 189 24.0 31.0 0.10 0.28 0.28 93 1005.0
20260506220003 49 190 27.0 34.0 0.12 0.18 0.18 93 1005.2
20260506215003 49 194 24.0 30.0 0.09 0.15 0.15 93 1005.6
20260506214003 49 192 25.0 29.0 0.06 0.12 0.12 93 1005.6
20260506213002 50 191 24.0 29.0 0.04 0.10 0.10 93 1005.5
20260506212003 50 190 25.0 31.0 0.03 0.09 0.09 93 1005.6
20260506211003 50 187 27.0 32.0 0.02 0.08 0.08 93 1005.5
20260506210002 50 191 24.0 31.0 0.06 0.06 0.06 93 1005.8
20260506205024 50 192 25.0 29.0 0.04 0.04 0.04 92 1005.8
20260506204002 50 196 25.0 30.0 0.03 0.03 0.03 92 1005.9
20260506203003 50 195 22.0 28.0 0.02 0.02 0.02 92 1005.7
20260506202002 50 198 25.0 31.0 0.02 0.02 0.02 92 1005.8
20260506201003 50 197 28.0 34.0 0.01 0.01 0.01 92 1005.9
20260506200003 50 200 29.0 35.0 0.00 0.00 0.00 92 1005.9
20260506195003 50 204 27.0 33.0 0.00 0.00 0.00 91 1006.1
20260506194003 51 200 28.0 33.0 0.00 0.00 0.00 91 1005.6
20260506193002 50 193 27.0 33.0 0.00 0.00 0.00 91 1005.5
20260506192003 50 186 27.0 32.0 0.00 0.00 0.00 91 1005.5
20260506191003 50 186 27.0 33.0 0.00 0.00 0.00 91 1005.6
20260506190003 50 187 26.0 33.0 0.00 0.00 0.00 91 1005.7
20260506185003 50 190 25.0 33.0 0.00 0.00 0.00 91 1006.0
20260506184002 50 190 26.0 31.0 0.00 0.00 0.00 91 1006.0
20260506183003 50 189 25.0 30.0 0.00 0.00 0.00 91 1006.3
20260506182024 50 189 24.0 27.0 0.00 0.00 0.00 91 1006.4
20260506181003 50 191 22.0 27.0 0.00 0.00 0.00 91 1006.5
20260506180004 50 191 22.0 26.0 0.00 0.00 0.00 91 1006.4
20260506175002 50 188 21.0 26.0 0.00 0.00 0.00 91 1006.6
20260506174003 50 192 21.0 24.0 0.00 0.00 0.00 91 1006.6
20260506172003 50 195 18.0 22.0 0.00 0.00 0.00 91 1006.9
20260506171002 50 199 17.0 23.0 0.00 0.00 0.00 90 1007.1
20260506170003 50 200 19.0 23.0 0.00 0.00 0.00 91 1007.2
20260506165003 50 205 18.0 21.0 0.00 0.00 0.00 91 1007.5
20260506164024 50 206 17.0 21.0 0.00 0.00 0.00 90 1007.6
20260506163003 50 203 16.0 21.0 0.00 0.00 0.00 91 1008.1
20260506162002 50 203 16.0 22.0 0.00 0.00 0.00 91 1008.2
20260506161003 50 199 17.0 20.0 0.00 0.00 0.00 91 1008.3
20260506160003 50 204 18.0 22.0 0.00 0.00 0.00 91 1008.4
20260506155003 50 207 18.0 24.0 0.00 0.00 0.00 90 1008.7
20260506154003 50 203 19.0 23.0 0.00 0.00 0.00 90 1008.5
20260506153002 50 211 15.0 19.0 0.00 0.00 0.00 90 1008.6
20260506152003 51 204 17.0 20.0 0.00 0.00 0.00 91 1008.6
20260506151003 51 200 18.0 21.0 0.00 0.00 0.00 91 1008.4
20260506150044 50 194 19.0 24.0 0.00 0.00 0.00 91 1008.2
20260506145003 51 196 18.0 22.0 0.00 0.00 0.00 91 1008.1
20260506144002 50 205 18.0 22.0 0.00 0.00 0.00 91 1008.4
20260506143003 50 213 13.0 18.0 0.00 0.00 0.00 92 1008.6
20260506142003 50 216 14.0 19.0 0.00 0.00 0.00 92 1008.7
20260506141002 50 210 16.0 21.0 0.00 0.00 0.00 92 1008.7
20260506140024 50 207 16.0 20.0 0.00 0.00 0.00 92 1008.8
20260506135003 49 212 14.0 19.0 0.00 0.00 0.00 92 1008.9
20260506134002 49 208 16.0 19.0 0.00 0.00 0.00 92 1008.9
20260506133003 49 221 9.0 13.0 0.00 0.00 0.00 92 1008.7
20260506132002 49 248 5.0 9.0 0.00 0.00 0.00 92 1008.8
20260506131003 49 235 6.0 11.0 0.00 0.00 0.00 93 1008.6
20260506130002 49 223 7.0 12.0 0.00 0.00 0.00 92 1008.5
20260506125045 49 235 4.0 9.0 0.00 0.00 0.00 93 1008.7
20260506124003 48 238 5.0 9.0 0.00 0.00 0.00 93 1008.8
20260506123002 48 228 6.0 11.0 0.00 0.00 0.00 92 1008.8
20260506122003 49 231 5.0 9.0 0.00 0.00 0.00 93 1008.8
20260506121003 48 264 3.0 11.0 0.00 0.00 0.00 92 1009.0
20260506120024 48 266 6.0 11.0 0.00 0.00 0.00 92 1009.1
20260506115003 48 268 4.0 10.0 0.00 0.00 0.00 92 1008.9
20260506114003 48 261 6.0 12.0 0.00 0.00 0.00 92 1009.4
20260506113003 48 241 5.0 11.0 0.00 0.00 0.00 93 1009.1
20260506112002 48 232 7.0 17.0 0.00 0.00 0.00 92 1009.1
20260506111003 48 214 12.0 19.0 0.00 0.00 0.00 92 1009.0
20260506105003 48 212 10.0 14.0 0.00 0.00 0.00 92 1008.8
20260506104023 48 220 9.0 14.0 0.00 0.00 0.00 92 1009.1
20260506103003 48 221 9.0 14.0 0.00 0.00 0.00 92 1008.8
20260506102045 48 256 6.0 13.0 0.00 0.00 0.00 92 1008.9
20260506101002 48 263 10.0 15.0 0.00 0.00 0.00 92 1008.8
20260506100024 48 264 11.0 14.0 0.00 0.00 0.00 92 1008.8
20260506095002 48 272 10.0 14.0 0.00 0.00 0.00 92 1008.7
20260506094003 48 278 10.0 13.0 0.00 0.00 0.00 92 1008.7
20260506093002 47 272 9.0 11.0 0.00 0.00 0.00 92 1008.7
20260506092024 47 236 8.0 17.0 0.00 0.00 0.00 92 1008.5
20260506091003 47 213 13.0 21.0 0.00 0.00 0.00 92 1008.3
20260506090002 47 210 16.0 22.0 0.00 0.00 0.00 92 1008.1
20260506085003 47 209 15.0 21.0 0.00 0.00 0.00 91 1008.3
20260506084002 47 214 15.0 22.0 0.00 0.00 0.00 91 1008.1
20260506083003 47 210 16.0 23.0 0.00 0.00 0.00 91 1008.1
20260506082003 48 211 17.0 23.0 0.00 0.00 0.00 91 1008.1
20260506081003 48 208 19.0 24.0 0.00 0.00 0.00 91 1007.9
20260506073002 48 196 25.0 30.0 0.00 0.00 0.00 90 1007.6
20260506072024 48 201 25.0 30.0 0.00 0.00 0.00 90 1007.7
20260506071003 48 199 26.0 34.0 0.00 0.00 0.00 90 1007.5
20260506062003 48 212 17.0 21.0 0.00 0.00 0.00 89 1007.4
20260506061002 48 214 14.0 25.0 0.00 0.00 0.00 89 1007.5
20260506051003 48 202 22.0 26.0 0.00 0.00 0.00 89 1007.6
20260506045003 48 203 23.0 26.0 0.00 0.00 0.00 89 1007.7
20260506044023 48 200 21.0 24.0 0.00 0.00 0.00 89 1007.6
20260506043003 48 219 12.0 16.0 0.00 0.00 0.00 89 1007.7
20260506042003 48 252 7.0 13.0 0.00 0.00 0.00 89 1007.7
20260506041002 48 257 8.0 14.0 0.00 0.00 0.00 90 1007.6
20260506040003 48 249 7.0 12.0 0.00 0.00 0.00 90 1007.8
20260506035002 48 230 9.0 17.0 0.00 0.00 0.00 89 1007.8
20260506034003 48 225 10.0 13.0 0.00 0.00 0.00 89 1007.9
20260506033002 48 238 6.0 11.0 0.00 0.00 0.00 89 1007.8
20260506032024 48 239 5.0 12.0 0.00 0.00 0.00 89 1007.9
20260506031024 48 234 7.0 12.0 0.00 0.00 0.00 89 1008.0
20260506030002 48 231 6.0 12.0 0.00 0.00 0.00 89 1007.8
20260506025003 48 220 7.0 11.0 0.00 0.00 0.00 89 1007.8
20260506024002 48 227 6.0 11.0 0.00 0.00 0.00 88 1008.0
20260506023003 48 231 6.0 10.0 0.00 0.00 0.00 88 1008.1
20260506022002 48 244 3.0 10.0 0.00 0.00 0.00 88 1008.2
20260506021003 48 218 6.0 10.0 0.00 0.00 0.00 88 1008.1
20260506020003 48 226 9.0 12.0 0.00 0.00 0.00 87 1008.2
20260506015003 48 228 8.0 11.0 0.00 0.00 0.00 86 1008.2
20260506014003 49 230 6.0 12.0 0.00 0.00 0.00 86 1008.3
20260506013002 49 256 3.0 9.0 0.00 0.00 0.00 86 1008.2
20260506012003 49 237 5.0 10.0 0.00 0.00 0.00 86 1007.9
20260506011002 49 227 9.0 20.0 0.00 0.00 0.00 85 1008.0
20260506010024 50 210 16.0 26.0 0.00 0.00 0.00 83 1007.5
20260506005024 51 209 23.0 28.0 0.00 0.00 0.00 85 1007.3